Location: Unspecified
(49.8670°N, 0.0000°E)
Time: 03:49:57
(UTC+00:00)

Vanguard 1 - Pass Details

Date: 21 June 2019
Orbit: 653 x 3830 km, 34.3° (Epoch: 20 July)

Event Time Altitude Azimuth Distance (km) Brightness Sun altitude
Rises 05:28:15 0° 253° (WSW) 6,501 13.6 12.6°
Reaches altitude 10° 05:33:49 10° 245° (WSW) 4,924 13.1 13.4°
Maximum altitude 05:44:04 30° 191° (S) 2,491 12.0 15.0°
Drops below altitude 10° 05:50:25 10° 132° (SE) 2,988 13.0 16.0°
Sets 05:52:55 0° 121° (ESE) 3,667 13.7 16.3°
